Year,Month,Day,Hour,Minute,Value (Times are PST for temperature in C)
2014,09,15,00,00,13.20
2014,09,15,00,01,13.20
2014,09,15,00,02,13.20
2014,09,15,00,03,13.20
2014,09,15,00,04,13.20
2014,09,15,00,05,13.20
2014,09,15,00,06,13.20
2014,09,15,00,07,13.20
2014,09,15,00,08,13.20
2014,09,15,00,09,13.20
2014,09,15,00,10,13.20
2014,09,15,00,11,13.20
2014,09,15,00,12,13.20
2014,09,15,00,13,13.20
2014,09,15,00,14,13.10
2014,09,15,00,15,13.10
2014,09,15,00,16,13.10
2014,09,15,00,17,13.10
2014,09,15,00,18,13.10
2014,09,15,00,19,13.10
2014,09,15,00,20,13.10
2014,09,15,00,21,13.10
2014,09,15,00,22,13.10
2014,09,15,00,23,13.10
2014,09,15,00,24,13.10
2014,09,15,00,25,13.10
2014,09,15,00,26,13.00
2014,09,15,00,27,13.00
2014,09,15,00,28,13.00
2014,09,15,00,29,13.00
2014,09,15,00,30,12.90
2014,09,15,00,31,12.90
2014,09,15,00,32,12.90
2014,09,15,00,33,12.90
2014,09,15,00,34,12.90
2014,09,15,00,35,12.90
2014,09,15,00,36,12.90
2014,09,15,00,37,12.90
2014,09,15,00,38,12.90
2014,09,15,00,39,12.90
2014,09,15,00,40,13.00
2014,09,15,00,41,13.00
2014,09,15,00,42,13.00
2014,09,15,00,43,12.90
2014,09,15,00,44,12.90
2014,09,15,00,45,12.90
2014,09,15,00,46,12.90
2014,09,15,00,47,12.90
2014,09,15,00,48,12.80
2014,09,15,00,49,12.80
2014,09,15,00,50,12.80
2014,09,15,00,51,12.80
2014,09,15,00,52,12.80
2014,09,15,00,53,12.70
2014,09,15,00,54,12.70
2014,09,15,00,55,12.70
2014,09,15,00,56,12.80
2014,09,15,00,57,12.80
2014,09,15,00,58,12.80
2014,09,15,00,59,12.80
2014,09,15,01,00,12.80
2014,09,15,01,01,12.80
2014,09,15,01,02,12.80
2014,09,15,01,03,12.80
2014,09,15,01,04,12.80
2014,09,15,01,05,12.80
2014,09,15,01,06,12.80
2014,09,15,01,07,12.80
2014,09,15,01,08,12.80
2014,09,15,01,09,12.80
2014,09,15,01,10,12.80
2014,09,15,01,11,12.80
2014,09,15,01,12,12.80
2014,09,15,01,13,12.80
2014,09,15,01,14,12.80
2014,09,15,01,15,12.80
2014,09,15,01,16,12.70
2014,09,15,01,17,12.70
2014,09,15,01,18,12.70
2014,09,15,01,19,12.60
2014,09,15,01,20,12.60
2014,09,15,01,21,12.60
2014,09,15,01,22,12.60
2014,09,15,01,23,12.60
2014,09,15,01,24,12.60
2014,09,15,01,25,12.50
2014,09,15,01,26,12.50
2014,09,15,01,27,12.50
2014,09,15,01,28,12.50
2014,09,15,01,29,12.50
2014,09,15,01,30,12.60
2014,09,15,01,31,12.60
2014,09,15,01,32,12.60
2014,09,15,01,33,12.60
2014,09,15,01,34,12.60
2014,09,15,01,35,12.60
2014,09,15,01,36,12.60
2014,09,15,01,37,12.60
2014,09,15,01,38,12.60
2014,09,15,01,39,12.60
2014,09,15,01,40,12.60
2014,09,15,01,41,12.60
2014,09,15,01,42,12.60
2014,09,15,01,43,12.60
2014,09,15,01,44,12.60
2014,09,15,01,45,12.50
2014,09,15,01,46,12.50
2014,09,15,01,47,12.40
2014,09,15,01,48,12.40
2014,09,15,01,49,12.40
2014,09,15,01,50,12.40
2014,09,15,01,51,12.40
2014,09,15,01,52,12.40
2014,09,15,01,53,12.40
2014,09,15,01,54,12.40
2014,09,15,01,55,12.40
2014,09,15,01,56,12.40
2014,09,15,01,57,12.40
2014,09,15,01,58,12.40
2014,09,15,01,59,12.40
2014,09,15,02,00,12.40
2014,09,15,02,01,12.40
2014,09,15,02,02,12.40
2014,09,15,02,03,12.40
2014,09,15,02,04,12.40
2014,09,15,02,05,12.30
2014,09,15,02,06,12.30
2014,09,15,02,07,12.30
2014,09,15,02,08,12.30
2014,09,15,02,09,12.30
2014,09,15,02,10,12.30
2014,09,15,02,11,12.20
2014,09,15,02,12,12.20
2014,09,15,02,13,12.20
2014,09,15,02,14,12.20
2014,09,15,02,15,12.20
2014,09,15,02,16,12.20
2014,09,15,02,17,12.20
2014,09,15,02,18,12.20
2014,09,15,02,19,12.20
2014,09,15,02,20,12.20
2014,09,15,02,21,12.20
2014,09,15,02,22,12.20
2014,09,15,02,23,12.20
2014,09,15,02,24,12.20
2014,09,15,02,25,12.20
2014,09,15,02,26,12.20
2014,09,15,02,27,12.20
2014,09,15,02,28,12.20
2014,09,15,02,29,12.20
2014,09,15,02,30,12.20
2014,09,15,02,31,12.20
2014,09,15,02,32,12.10
2014,09,15,02,33,12.10
2014,09,15,02,34,12.10
2014,09,15,02,35,12.10
2014,09,15,02,36,12.10
2014,09,15,02,37,12.10
2014,09,15,02,38,12.10
2014,09,15,02,39,12.10
2014,09,15,02,40,12.10
2014,09,15,02,41,12.10
2014,09,15,02,42,12.00
2014,09,15,02,43,12.00
2014,09,15,02,44,12.00
2014,09,15,02,45,11.90
2014,09,15,02,46,11.90
2014,09,15,02,47,11.90
2014,09,15,02,48,11.90
2014,09,15,02,49,11.90
2014,09,15,02,50,11.90
2014,09,15,02,51,11.90
2014,09,15,02,52,11.90
2014,09,15,02,53,11.90
2014,09,15,02,54,11.90
2014,09,15,02,55,11.90
2014,09,15,02,56,11.90
2014,09,15,02,57,11.90
2014,09,15,02,58,11.90
2014,09,15,02,59,11.90
2014,09,15,03,00,12.00
2014,09,15,03,01,12.00
2014,09,15,03,02,12.00
2014,09,15,03,03,12.00
2014,09,15,03,04,12.00
2014,09,15,03,05,12.00
2014,09,15,03,06,12.00
2014,09,15,03,07,11.90
2014,09,15,03,08,11.90
2014,09,15,03,09,11.90
2014,09,15,03,10,11.90
2014,09,15,03,11,11.90
2014,09,15,03,12,11.90
2014,09,15,03,13,11.80
2014,09,15,03,14,11.80
2014,09,15,03,15,11.80
2014,09,15,03,16,11.80
2014,09,15,03,17,11.80
2014,09,15,03,18,11.70
2014,09,15,03,19,11.70
2014,09,15,03,20,11.70
2014,09,15,03,21,11.70
2014,09,15,03,22,11.70
2014,09,15,03,23,11.70
2014,09,15,03,24,11.70
2014,09,15,03,25,11.70
2014,09,15,03,26,11.70
2014,09,15,03,27,11.70
2014,09,15,03,28,11.70
2014,09,15,03,29,11.70
2014,09,15,03,30,11.70
2014,09,15,03,31,11.70
2014,09,15,03,32,11.70
2014,09,15,03,33,11.70
2014,09,15,03,34,11.70
2014,09,15,03,35,11.70
2014,09,15,03,36,11.70
2014,09,15,03,37,11.70
2014,09,15,03,38,11.70
2014,09,15,03,39,11.70
2014,09,15,03,40,11.70
2014,09,15,03,41,11.70
2014,09,15,03,42,11.70
2014,09,15,03,43,11.70
2014,09,15,03,44,11.70
2014,09,15,03,45,11.70
2014,09,15,03,46,11.70
2014,09,15,03,47,11.70
2014,09,15,03,48,11.70
2014,09,15,03,49,11.70
2014,09,15,03,50,11.70
2014,09,15,03,51,11.60
2014,09,15,03,52,11.60
2014,09,15,03,53,11.60
2014,09,15,03,54,11.60
2014,09,15,03,55,11.50
2014,09,15,03,56,11.50
2014,09,15,03,57,11.50
2014,09,15,03,58,11.50
2014,09,15,03,59,11.50
2014,09,15,04,00,11.50
2014,09,15,04,01,11.50
2014,09,15,04,02,11.50
2014,09,15,04,03,11.60
2014,09,15,04,04,11.60
2014,09,15,04,05,11.50
2014,09,15,04,06,11.50
2014,09,15,04,07,11.50
2014,09,15,04,08,11.40
2014,09,15,04,09,11.40
2014,09,15,04,10,11.40
2014,09,15,04,11,11.40
2014,09,15,04,12,11.40
2014,09,15,04,13,11.40
2014,09,15,04,14,11.40
2014,09,15,04,15,11.30
2014,09,15,04,16,11.30
2014,09,15,04,17,11.30
2014,09,15,04,18,11.30
2014,09,15,04,19,11.30
2014,09,15,04,20,11.30
2014,09,15,04,21,11.30
2014,09,15,04,22,11.30
2014,09,15,04,23,11.30
2014,09,15,04,24,11.30
2014,09,15,04,25,11.30
2014,09,15,04,26,11.30
2014,09,15,04,27,11.30
2014,09,15,04,28,11.30
2014,09,15,04,29,11.30
2014,09,15,04,30,11.30
2014,09,15,04,31,11.30
2014,09,15,04,32,11.30
2014,09,15,04,33,11.30
2014,09,15,04,34,11.20
2014,09,15,04,35,11.20
2014,09,15,04,36,11.20
2014,09,15,04,37,11.20
2014,09,15,04,38,11.20
2014,09,15,04,39,11.20
2014,09,15,04,40,11.20
2014,09,15,04,41,11.20
2014,09,15,04,42,11.20
2014,09,15,04,43,11.20
2014,09,15,04,44,11.20
2014,09,15,04,45,11.20
2014,09,15,04,46,11.20
2014,09,15,04,47,11.20
2014,09,15,04,48,11.20
2014,09,15,04,49,11.20
2014,09,15,04,50,11.20
2014,09,15,04,51,11.20
2014,09,15,04,52,11.20
2014,09,15,04,53,11.10
2014,09,15,04,54,11.10
2014,09,15,04,55,11.10
2014,09,15,04,56,11.10
2014,09,15,04,57,11.10
2014,09,15,04,58,11.20
2014,09,15,04,59,11.20
2014,09,15,05,00,11.20
2014,09,15,05,01,11.20
2014,09,15,05,02,11.20
2014,09,15,05,03,11.20
2014,09,15,05,04,11.20
2014,09,15,05,05,11.20
2014,09,15,05,06,11.20
2014,09,15,05,07,11.20
2014,09,15,05,08,11.20
2014,09,15,05,09,11.20
2014,09,15,05,10,11.20
2014,09,15,05,11,11.20
2014,09,15,05,12,11.20
2014,09,15,05,13,11.10
2014,09,15,05,14,11.10
2014,09,15,05,15,11.10
2014,09,15,05,16,11.10
2014,09,15,05,17,11.10
2014,09,15,05,18,11.10
2014,09,15,05,19,11.00
2014,09,15,05,20,11.00
2014,09,15,05,21,11.00
2014,09,15,05,22,11.00
2014,09,15,05,23,11.00
2014,09,15,05,24,11.00
2014,09,15,05,25,11.00
2014,09,15,05,26,11.00
2014,09,15,05,27,11.00
2014,09,15,05,28,10.90
2014,09,15,05,29,10.90
2014,09,15,05,30,11.00
2014,09,15,05,31,10.90
2014,09,15,05,32,10.90
2014,09,15,05,33,10.90
2014,09,15,05,34,10.90
2014,09,15,05,35,10.90
2014,09,15,05,36,10.90
2014,09,15,05,37,10.90
2014,09,15,05,38,10.90
2014,09,15,05,39,10.90
2014,09,15,05,40,10.90
2014,09,15,05,41,10.90
2014,09,15,05,42,10.80
2014,09,15,05,43,10.80
2014,09,15,05,44,10.80
2014,09,15,05,45,10.80
2014,09,15,05,46,10.80
2014,09,15,05,47,10.80
2014,09,15,05,48,10.80
2014,09,15,05,49,10.80
2014,09,15,05,50,10.80
2014,09,15,05,51,10.80
2014,09,15,05,52,10.80
2014,09,15,05,53,10.80
2014,09,15,05,54,10.80
2014,09,15,05,55,10.80
2014,09,15,05,56,10.70
2014,09,15,05,57,10.70
2014,09,15,05,58,10.70
2014,09,15,05,59,10.70
2014,09,15,06,00,10.70
2014,09,15,06,01,10.70
2014,09,15,06,02,10.70
2014,09,15,06,03,10.70
2014,09,15,06,04,10.70
2014,09,15,06,05,10.70
2014,09,15,06,06,10.70
2014,09,15,06,07,10.70
2014,09,15,06,08,10.70
2014,09,15,06,09,10.70
2014,09,15,06,10,10.70
2014,09,15,06,11,10.70
2014,09,15,06,12,10.70
2014,09,15,06,13,10.60
2014,09,15,06,14,10.60
2014,09,15,06,15,10.60
2014,09,15,06,16,10.60
2014,09,15,06,17,10.60
2014,09,15,06,18,10.60
2014,09,15,06,19,10.50
2014,09,15,06,20,10.50
2014,09,15,06,21,10.50
2014,09,15,06,22,10.50
2014,09,15,06,23,10.50
2014,09,15,06,24,10.40
2014,09,15,06,25,10.40
2014,09,15,06,26,10.40
2014,09,15,06,27,10.40
2014,09,15,06,28,10.40
2014,09,15,06,29,10.40
2014,09,15,06,30,10.40
2014,09,15,06,31,10.40
2014,09,15,06,32,10.40
2014,09,15,06,33,10.40
2014,09,15,06,34,10.40
2014,09,15,06,35,10.40
2014,09,15,06,36,10.40
2014,09,15,06,37,10.40
2014,09,15,06,38,10.40
2014,09,15,06,39,10.40
2014,09,15,06,40,10.40
2014,09,15,06,41,10.40
2014,09,15,06,42,10.40
2014,09,15,06,43,10.40
2014,09,15,06,44,10.40
2014,09,15,06,45,10.40
2014,09,15,06,46,10.30
2014,09,15,06,47,10.30
2014,09,15,06,48,10.30
2014,09,15,06,49,10.30
2014,09,15,06,50,10.30
2014,09,15,06,51,10.30
2014,09,15,06,52,10.30
2014,09,15,06,53,10.30
2014,09,15,06,54,10.30
2014,09,15,06,55,10.30
2014,09,15,06,56,10.30
2014,09,15,06,57,10.30
2014,09,15,06,58,10.30
2014,09,15,06,59,10.30
2014,09,15,07,00,10.30
2014,09,15,07,01,10.30
2014,09,15,07,02,10.30
2014,09,15,07,03,10.30
2014,09,15,07,04,10.30
2014,09,15,07,05,10.30
2014,09,15,07,06,10.30
2014,09,15,07,07,10.30
2014,09,15,07,08,10.30
2014,09,15,07,09,10.30
2014,09,15,07,10,10.30
2014,09,15,07,11,10.30
2014,09,15,07,12,10.30
2014,09,15,07,13,10.30
2014,09,15,07,14,10.30
2014,09,15,07,15,10.30
2014,09,15,07,16,10.30
2014,09,15,07,17,10.30
2014,09,15,07,18,10.30
2014,09,15,07,19,10.30
2014,09,15,07,20,10.30
2014,09,15,07,21,10.30
2014,09,15,07,22,10.30
2014,09,15,07,23,10.30
2014,09,15,07,24,10.30
2014,09,15,07,25,10.30
2014,09,15,07,26,10.30
2014,09,15,07,27,10.30
2014,09,15,07,28,10.30
2014,09,15,07,29,10.30
2014,09,15,07,30,10.30
2014,09,15,07,31,10.30
2014,09,15,07,32,10.30
2014,09,15,07,33,10.30
2014,09,15,07,34,10.30
2014,09,15,07,35,10.30
2014,09,15,07,36,10.30
2014,09,15,07,37,10.20
2014,09,15,07,38,10.20
2014,09,15,07,39,10.20
2014,09,15,07,40,10.20
2014,09,15,07,41,10.30
2014,09,15,07,42,10.30
2014,09,15,07,43,10.30
2014,09,15,07,44,10.30
2014,09,15,07,45,10.30
2014,09,15,07,46,10.30
2014,09,15,07,47,10.30
2014,09,15,07,48,10.40
2014,09,15,07,49,10.40
2014,09,15,07,50,10.40
2014,09,15,07,51,10.40
2014,09,15,07,52,10.40
2014,09,15,07,53,10.50
2014,09,15,07,54,10.50
2014,09,15,07,55,10.50
2014,09,15,07,56,10.60
2014,09,15,07,57,10.60
2014,09,15,07,58,10.60
2014,09,15,07,59,10.70
2014,09,15,08,00,10.70
2014,09,15,08,01,10.80
2014,09,15,08,02,10.80
2014,09,15,08,03,10.80
2014,09,15,08,04,10.80
2014,09,15,08,05,10.90
2014,09,15,08,06,10.90
2014,09,15,08,07,11.00
2014,09,15,08,08,11.00
2014,09,15,08,09,11.00
2014,09,15,08,10,11.10
2014,09,15,08,11,11.10
2014,09,15,08,12,11.10
2014,09,15,08,13,11.20
2014,09,15,08,14,11.20
2014,09,15,08,15,11.20
2014,09,15,08,16,11.20
2014,09,15,08,17,11.30
2014,09,15,08,18,11.30
2014,09,15,08,19,11.30
2014,09,15,08,20,11.30
2014,09,15,08,21,11.40
2014,09,15,08,22,11.40
2014,09,15,08,23,11.40
2014,09,15,08,24,11.50
2014,09,15,08,25,11.50
2014,09,15,08,26,11.50
2014,09,15,08,27,11.60
2014,09,15,08,28,11.60
2014,09,15,08,29,11.60
2014,09,15,08,30,11.60
2014,09,15,08,31,11.60
2014,09,15,08,32,11.70
2014,09,15,08,33,11.70
2014,09,15,08,34,11.70
2014,09,15,08,35,11.80
2014,09,15,08,36,11.80
2014,09,15,08,37,11.80
2014,09,15,08,38,11.90
2014,09,15,08,39,11.90
2014,09,15,08,40,11.90
2014,09,15,08,41,12.00
2014,09,15,08,42,12.00
2014,09,15,08,43,12.10
2014,09,15,08,44,12.10
2014,09,15,08,45,12.20
2014,09,15,08,46,12.20
2014,09,15,08,47,12.30
2014,09,15,08,48,12.40
2014,09,15,08,49,12.40
2014,09,15,08,50,12.50
2014,09,15,08,51,12.50
2014,09,15,08,52,12.60
2014,09,15,08,53,12.70
2014,09,15,08,54,12.70
2014,09,15,08,55,12.80
2014,09,15,08,56,12.90
2014,09,15,08,57,12.90
2014,09,15,08,58,13.00
2014,09,15,08,59,13.10
2014,09,15,09,00,13.20
2014,09,15,09,01,13.30
2014,09,15,09,02,13.40
2014,09,15,09,03,13.50
2014,09,15,09,04,13.60
2014,09,15,09,05,13.70
2014,09,15,09,06,13.80
2014,09,15,09,07,13.90
2014,09,15,09,08,14.00
2014,09,15,09,09,14.00
2014,09,15,09,10,14.10
2014,09,15,09,11,14.20
2014,09,15,09,12,14.20
2014,09,15,09,13,14.30
2014,09,15,09,14,14.40
2014,09,15,09,15,14.40
2014,09,15,09,16,14.50
2014,09,15,09,17,14.60
2014,09,15,09,18,14.70
2014,09,15,09,19,14.80
2014,09,15,09,20,14.80
2014,09,15,09,21,15.00
2014,09,15,09,22,15.00
2014,09,15,09,23,15.00
2014,09,15,09,24,15.00
2014,09,15,09,25,15.20
2014,09,15,09,26,15.30
2014,09,15,09,27,15.40
2014,09,15,09,28,15.40
2014,09,15,09,29,15.50
2014,09,15,09,30,15.60
2014,09,15,09,31,15.70
2014,09,15,09,32,15.80
2014,09,15,09,33,15.90
2014,09,15,09,34,16.00
2014,09,15,09,35,16.00
2014,09,15,09,36,16.10
2014,09,15,09,37,16.20
2014,09,15,09,38,16.20
2014,09,15,09,39,16.30
2014,09,15,09,40,16.30
2014,09,15,09,41,16.40
2014,09,15,09,42,16.50
2014,09,15,09,43,16.60
2014,09,15,09,44,16.70
2014,09,15,09,45,16.80
2014,09,15,09,46,16.90
2014,09,15,09,47,16.90
2014,09,15,09,48,17.00
2014,09,15,09,49,17.10
2014,09,15,09,50,17.10
2014,09,15,09,51,17.20
2014,09,15,09,52,17.20
2014,09,15,09,53,17.30
2014,09,15,09,54,17.30
2014,09,15,09,55,17.40
2014,09,15,09,56,17.50
2014,09,15,09,57,17.60
2014,09,15,09,58,17.60
2014,09,15,09,59,17.70
2014,09,15,10,00,17.90
2014,09,15,10,01,18.00
2014,09,15,10,02,18.20
2014,09,15,10,03,18.30
2014,09,15,10,04,18.40
2014,09,15,10,05,18.60
2014,09,15,10,06,18.70
2014,09,15,10,07,18.80
2014,09,15,10,08,19.00
2014,09,15,10,09,19.10
2014,09,15,10,10,19.20
2014,09,15,10,11,19.30
2014,09,15,10,12,19.40
2014,09,15,10,13,19.60
2014,09,15,10,14,19.70
2014,09,15,10,15,19.80
2014,09,15,10,16,19.90
2014,09,15,10,17,20.00
2014,09,15,10,18,20.20
2014,09,15,10,19,20.30
2014,09,15,10,20,20.40
2014,09,15,10,21,20.50
2014,09,15,10,22,20.60
2014,09,15,10,23,20.80
2014,09,15,10,24,20.90
2014,09,15,10,25,21.00
2014,09,15,10,26,21.10
2014,09,15,10,27,21.20
2014,09,15,10,28,21.30
2014,09,15,10,29,21.40
2014,09,15,10,30,21.50
2014,09,15,10,31,21.60
2014,09,15,10,32,21.70
2014,09,15,10,33,21.80
2014,09,15,10,34,21.90
2014,09,15,10,35,22.00
2014,09,15,10,36,22.10
2014,09,15,10,37,22.20
2014,09,15,10,38,22.20
2014,09,15,10,39,22.30
2014,09,15,10,40,22.40
2014,09,15,10,41,22.40
2014,09,15,10,42,22.50
2014,09,15,10,43,22.60
2014,09,15,10,44,22.60
2014,09,15,10,45,22.60
2014,09,15,10,46,22.60
2014,09,15,10,47,22.60
2014,09,15,10,48,22.70
2014,09,15,10,49,22.70
2014,09,15,10,50,22.70
2014,09,15,10,51,22.80
2014,09,15,10,52,22.80
2014,09,15,10,53,22.80
2014,09,15,10,54,22.90
2014,09,15,10,55,22.90
2014,09,15,10,56,22.90
2014,09,15,10,57,23.00
2014,09,15,10,58,23.00
2014,09,15,10,59,23.10
2014,09,15,11,00,23.10
2014,09,15,11,01,23.10
2014,09,15,11,02,23.20
2014,09,15,11,03,23.20
2014,09,15,11,04,23.20
2014,09,15,11,05,23.30
2014,09,15,11,06,23.30
2014,09,15,11,07,23.30
2014,09,15,11,08,23.30
2014,09,15,11,09,23.40
2014,09,15,11,10,23.40
2014,09,15,11,11,23.40
2014,09,15,11,12,23.40
2014,09,15,11,13,23.40
2014,09,15,11,14,23.50
2014,09,15,11,15,23.50
2014,09,15,11,16,23.60
2014,09,15,11,17,23.60
2014,09,15,11,18,23.60
2014,09,15,11,19,23.60
2014,09,15,11,20,23.60
2014,09,15,11,21,23.60
2014,09,15,11,22,23.60
2014,09,15,11,23,23.60
2014,09,15,11,24,23.70
2014,09,15,11,25,23.70
2014,09,15,11,26,23.70
2014,09,15,11,27,23.70
2014,09,15,11,28,23.80
2014,09,15,11,29,23.80
2014,09,15,11,30,23.80
2014,09,15,11,31,23.90
2014,09,15,11,32,23.90
2014,09,15,11,33,23.90
2014,09,15,11,34,23.90
2014,09,15,11,35,24.00
2014,09,15,11,36,24.00
2014,09,15,11,37,24.00
2014,09,15,11,38,24.00
2014,09,15,11,39,24.10
2014,09,15,11,40,24.10
2014,09,15,11,41,24.10
2014,09,15,11,42,24.10
2014,09,15,11,43,24.10
2014,09,15,11,44,24.10
2014,09,15,11,45,24.20
2014,09,15,11,46,24.20
2014,09,15,11,47,24.30
2014,09,15,11,48,24.30
2014,09,15,11,49,24.30
2014,09,15,11,50,24.30
2014,09,15,11,51,24.40
2014,09,15,11,52,24.30
2014,09,15,11,53,24.30
2014,09,15,11,54,24.30
2014,09,15,11,55,24.30
2014,09,15,11,56,24.20
2014,09,15,11,57,24.20
2014,09,15,11,58,24.30
2014,09,15,11,59,24.30
2014,09,15,12,00,24.30
2014,09,15,12,01,24.40
2014,09,15,12,02,24.40
2014,09,15,12,03,24.40
2014,09,15,12,04,24.50
2014,09,15,12,05,24.50
2014,09,15,12,06,24.50
2014,09,15,12,07,24.60
2014,09,15,12,08,24.60
2014,09,15,12,09,24.70
2014,09,15,12,10,24.70
2014,09,15,12,11,24.80
2014,09,15,12,12,24.80
2014,09,15,12,13,24.90
2014,09,15,12,14,24.90
2014,09,15,12,15,25.00
2014,09,15,12,16,25.00
2014,09,15,12,17,25.10
2014,09,15,12,18,25.10
2014,09,15,12,19,25.20
2014,09,15,12,20,25.20
2014,09,15,12,21,25.20
2014,09,15,12,22,25.20
2014,09,15,12,23,25.20
2014,09,15,12,24,25.20
2014,09,15,12,25,25.20
2014,09,15,12,26,25.20
2014,09,15,12,27,25.20
2014,09,15,12,28,25.30
2014,09,15,12,29,25.30
2014,09,15,12,30,25.40
2014,09,15,12,31,25.50
2014,09,15,12,32,25.50
2014,09,15,12,33,25.60
2014,09,15,12,34,25.60
2014,09,15,12,35,25.60
2014,09,15,12,36,25.70
2014,09,15,12,37,25.70
2014,09,15,12,38,25.70
2014,09,15,12,39,25.70
2014,09,15,12,40,25.70
2014,09,15,12,41,25.80
2014,09,15,12,42,25.80
2014,09,15,12,43,25.70
2014,09,15,12,44,25.70
2014,09,15,12,45,25.60
2014,09,15,12,46,25.60
2014,09,15,12,47,25.60
2014,09,15,12,48,25.60
2014,09,15,12,49,25.60
2014,09,15,12,50,25.60
2014,09,15,12,51,25.60
2014,09,15,12,52,25.60
2014,09,15,12,53,25.70
2014,09,15,12,54,25.70
2014,09,15,12,55,25.80
2014,09,15,12,56,25.80
2014,09,15,12,57,25.90
2014,09,15,12,58,25.90
2014,09,15,12,59,25.90
2014,09,15,13,00,25.90
2014,09,15,13,01,25.90
2014,09,15,13,02,25.90
2014,09,15,13,03,25.90
2014,09,15,13,04,26.00
2014,09,15,13,05,26.10
2014,09,15,13,06,26.20
2014,09,15,13,07,26.20
2014,09,15,13,08,26.30
2014,09,15,13,09,26.20
2014,09,15,13,10,26.20
2014,09,15,13,11,26.10
2014,09,15,13,12,26.00
2014,09,15,13,13,25.90
2014,09,15,13,14,26.00
2014,09,15,13,15,26.00
2014,09,15,13,16,26.10
2014,09,15,13,17,26.20
2014,09,15,13,18,26.30
2014,09,15,13,19,26.30
2014,09,15,13,20,26.40
2014,09,15,13,21,26.50
2014,09,15,13,22,26.50
2014,09,15,13,23,26.60
2014,09,15,13,24,26.70
2014,09,15,13,25,26.70
2014,09,15,13,26,26.80
2014,09,15,13,27,26.90
2014,09,15,13,28,26.90
2014,09,15,13,29,26.90
2014,09,15,13,30,27.00
2014,09,15,13,31,26.90
2014,09,15,13,32,26.90
2014,09,15,13,33,26.80
2014,09,15,13,34,26.70
2014,09,15,13,35,26.70
2014,09,15,13,36,26.70
2014,09,15,13,37,26.80
2014,09,15,13,38,26.80
2014,09,15,13,39,26.80
2014,09,15,13,40,26.80
2014,09,15,13,41,26.80
2014,09,15,13,42,26.90
2014,09,15,13,43,26.90
2014,09,15,13,44,27.00
2014,09,15,13,45,27.10
2014,09,15,13,46,27.10
2014,09,15,13,47,27.20
2014,09,15,13,48,27.20
2014,09,15,13,49,27.20
2014,09,15,13,50,27.20
2014,09,15,13,51,27.20
2014,09,15,13,52,27.10
2014,09,15,13,53,27.10
2014,09,15,13,54,27.10
2014,09,15,13,55,27.10
2014,09,15,13,56,27.10
2014,09,15,13,57,27.20
2014,09,15,13,58,27.20
2014,09,15,13,59,27.20
2014,09,15,14,00,27.20
2014,09,15,14,01,27.30
2014,09,15,14,02,27.40
2014,09,15,14,03,27.40
2014,09,15,14,04,27.50
2014,09,15,14,05,27.60
2014,09,15,14,06,27.60
2014,09,15,14,07,27.70
2014,09,15,14,08,27.80
2014,09,15,14,09,27.80
2014,09,15,14,10,27.90
2014,09,15,14,11,28.00
2014,09,15,14,12,28.10
2014,09,15,14,13,28.20
2014,09,15,14,14,28.20
2014,09,15,14,15,28.30
2014,09,15,14,16,28.30
2014,09,15,14,17,28.30
2014,09,15,14,18,28.30
2014,09,15,14,19,28.30
2014,09,15,14,20,28.30
2014,09,15,14,21,28.30
2014,09,15,14,22,28.30
2014,09,15,14,23,28.30
2014,09,15,14,24,28.40
2014,09,15,14,25,28.40
2014,09,15,14,26,28.50
2014,09,15,14,27,28.60
2014,09,15,14,28,28.60
2014,09,15,14,29,28.60
2014,09,15,14,30,28.70
2014,09,15,14,31,28.70
2014,09,15,14,32,28.70
2014,09,15,14,33,28.70
2014,09,15,14,34,28.70
2014,09,15,14,35,28.70
2014,09,15,14,36,28.70
2014,09,15,14,37,28.70
2014,09,15,14,38,28.70
2014,09,15,14,39,28.70
2014,09,15,14,40,28.80
2014,09,15,14,41,28.80
2014,09,15,14,42,28.90
2014,09,15,14,43,28.90
2014,09,15,14,44,28.90
2014,09,15,14,45,28.90
2014,09,15,14,46,29.00
2014,09,15,14,47,29.00
2014,09,15,14,48,29.00
2014,09,15,14,49,29.10
2014,09,15,14,50,29.10
2014,09,15,14,51,29.10
2014,09,15,14,52,29.10
2014,09,15,14,53,29.20
2014,09,15,14,54,29.30
2014,09,15,14,55,29.30
2014,09,15,14,56,29.40
2014,09,15,14,57,29.40
2014,09,15,14,58,29.40
2014,09,15,14,59,29.30
2014,09,15,15,00,29.20
2014,09,15,15,01,29.20
2014,09,15,15,02,29.10
2014,09,15,15,03,29.00
2014,09,15,15,04,29.00
2014,09,15,15,05,28.90
2014,09,15,15,06,28.90
2014,09,15,15,07,28.80
2014,09,15,15,08,28.80
2014,09,15,15,09,28.80
2014,09,15,15,10,28.80
2014,09,15,15,11,28.70
2014,09,15,15,12,28.60
2014,09,15,15,13,28.60
2014,09,15,15,14,28.60
2014,09,15,15,15,28.70
2014,09,15,15,16,28.70
2014,09,15,15,17,28.80
2014,09,15,15,18,28.80
2014,09,15,15,19,28.80
2014,09,15,15,20,28.80
2014,09,15,15,21,28.90
2014,09,15,15,22,28.90
2014,09,15,15,23,28.80
2014,09,15,15,24,28.80
2014,09,15,15,25,28.80
2014,09,15,15,26,28.80
2014,09,15,15,27,28.80
2014,09,15,15,28,28.80
2014,09,15,15,29,28.80
2014,09,15,15,30,28.80
2014,09,15,15,31,28.80
2014,09,15,15,32,28.70
2014,09,15,15,33,28.70
2014,09,15,15,34,28.70
2014,09,15,15,35,28.70
2014,09,15,15,36,28.70
2014,09,15,15,37,28.80
2014,09,15,15,38,28.80
2014,09,15,15,39,28.90
2014,09,15,15,40,29.00
2014,09,15,15,41,29.00
2014,09,15,15,42,29.10
2014,09,15,15,43,29.10
2014,09,15,15,44,29.20
2014,09,15,15,45,29.20
2014,09,15,15,46,29.30
2014,09,15,15,47,29.30
2014,09,15,15,48,29.30
2014,09,15,15,49,29.30
2014,09,15,15,50,29.30
2014,09,15,15,51,29.40
2014,09,15,15,52,29.40
2014,09,15,15,53,29.50
2014,09,15,15,54,29.50
2014,09,15,15,55,29.50
2014,09,15,15,56,29.40
2014,09,15,15,57,29.40
2014,09,15,15,58,29.40
2014,09,15,15,59,29.30
2014,09,15,16,00,29.40
2014,09,15,16,01,29.40
2014,09,15,16,02,29.40
2014,09,15,16,03,29.40
2014,09,15,16,04,29.40
2014,09,15,16,05,29.40
2014,09,15,16,06,29.40
2014,09,15,16,07,29.40
2014,09,15,16,08,29.40
2014,09,15,16,09,29.40
2014,09,15,16,10,29.40
2014,09,15,16,11,29.40
2014,09,15,16,12,29.40
2014,09,15,16,13,29.40
2014,09,15,16,14,29.40
2014,09,15,16,15,29.40
2014,09,15,16,16,29.40
2014,09,15,16,17,29.40
2014,09,15,16,18,29.50
2014,09,15,16,19,29.50
2014,09,15,16,20,29.60
2014,09,15,16,21,29.70
2014,09,15,16,22,29.70
2014,09,15,16,23,29.80
2014,09,15,16,24,29.70
2014,09,15,16,25,29.70
2014,09,15,16,26,29.70
2014,09,15,16,27,29.70
2014,09,15,16,28,29.70
2014,09,15,16,29,29.70
2014,09,15,16,30,29.70
2014,09,15,16,31,29.60
2014,09,15,16,32,29.60
2014,09,15,16,33,29.60
2014,09,15,16,34,29.60
2014,09,15,16,35,29.60
2014,09,15,16,36,29.60
2014,09,15,16,37,29.60
2014,09,15,16,38,29.60
2014,09,15,16,39,29.60
2014,09,15,16,40,29.60
2014,09,15,16,41,29.60
2014,09,15,16,42,29.70
2014,09,15,16,43,29.70
2014,09,15,16,44,29.70
2014,09,15,16,45,29.80
2014,09,15,16,46,29.90
2014,09,15,16,47,29.90
2014,09,15,16,48,30.00
2014,09,15,16,49,30.10
2014,09,15,16,50,30.10
2014,09,15,16,51,30.20
2014,09,15,16,52,30.20
2014,09,15,16,53,30.20
2014,09,15,16,54,30.30
2014,09,15,16,55,30.30
2014,09,15,16,56,30.30
2014,09,15,16,57,30.30
2014,09,15,16,58,30.30
2014,09,15,16,59,30.30
2014,09,15,17,00,30.30
2014,09,15,17,01,30.20
2014,09,15,17,02,30.20
2014,09,15,17,03,30.20
2014,09,15,17,04,30.20
2014,09,15,17,05,30.20
2014,09,15,17,06,30.20
2014,09,15,17,07,30.10
2014,09,15,17,08,30.10
2014,09,15,17,09,30.00
2014,09,15,17,10,30.00
2014,09,15,17,11,30.00
2014,09,15,17,12,30.00
2014,09,15,17,13,30.00
2014,09,15,17,14,29.90
2014,09,15,17,15,29.90
2014,09,15,17,16,29.90
2014,09,15,17,17,29.90
2014,09,15,17,18,29.90
2014,09,15,17,19,29.90